Weather History for Watertown, WI

Change the Weather History Date:

Friday, January 4, 2013

  Actual Average Record
Temperature  
Mean Temperature 18 °F -  
Max Temperature 27 °F 26 °F 48 °F (2007)
Min Temperature 8 °F 9 °F -15 °F (1942)
Degree Days  
Heating Degree Days 48    
Moisture  
Dew Point 12 °F    
Average Humidity 78    
Maximum Humidity 92    
Minimum Humidity 64    
Precipitation  
Precipitation 0.00 in - - ()
Sea Level Pressure  
Sea Level Pressure 30.11 in    
Wind  
Wind Speed 8 mph (SW)    
Max Wind Speed 13 mph    
Max Gust Speed 17 mph    
Visibility 10 miles    
Events      
Averages and records for this station are not official NWS values.
T = Trace of Precipitation, MM = Missing Value Source: NWS Daily Summary

Daily Weather History Graph

Daily Weather History Graph

Search for Another Location

Airport:

Trip Planner

Search our weather history database for the weather conditions in past years. The results will help you decide how hot, cold, wet, or windy it might be!

Date:

Astronomy

Jan. 04, 2013 Rise Set
Actual Time 7:26 AM CST 4:33 PM CST
Civil Twilight 6:54 AM CST 5:05 PM CST
Nautical Twilight 6:18 AM CST 5:41 PM CST
Astronomical Twilight 5:44 AM CST 6:15 PM CST
Moon No Moon Rise 10:56 AM CST (1/4)
Length of Visible Light 10h 11m
Length of Day
9h 06m
Waning Gibbous, 55% of the Moon is Illuminated
Jan 4
Waning Gibbous
Jan 4
Last Quarter
Jan 11
New
Jan 18
First Quarter
Jan 26
Full

Hourly Weather History & Observations

Time (CST) Temp. Windchill Dew Point Humidity Pressure Visibility Wind Dir Wind Speed Gust Speed Precip Events Conditions
12:15 AM 10.9 °F -0.8 °F 6.4 °F 82% 30.16 in 10.0 mi SW 8.1 mph - N/A   Clear
12:35 AM 10.4 °F -2.4 °F 5.5 °F 81% 30.16 in 10.0 mi SW 9.2 mph - N/A   Clear
12:55 AM 9.9 °F -4.0 °F 4.6 °F 79% 30.15 in 10.0 mi WSW 10.4 mph - N/A   Clear
1:35 AM 9.1 °F -4.0 °F 4.1 °F 80% 30.14 in 10.0 mi SW 9.2 mph - N/A   Clear
1:55 AM 8.6 °F -3.7 °F 4.1 °F 82% 30.14 in 10.0 mi SW 8.1 mph - N/A   Clear
2:15 AM 8.6 °F -3.7 °F 4.1 °F 82% 30.13 in 10.0 mi SW 8.1 mph - N/A   Clear
2:35 AM 8.6 °F -3.7 °F 4.3 °F 83% 30.13 in 10.0 mi SW 8.1 mph - N/A   Clear
2:55 AM 8.4 °F -4.9 °F 4.1 °F 83% 30.13 in 10.0 mi SW 9.2 mph - N/A   Clear
3:15 AM 8.6 °F -5.5 °F 4.8 °F 85% 30.12 in 10.0 mi SW 10.4 mph - N/A   Clear
5:35 AM 11.1 °F -1.6 °F 7.5 °F 85% 30.09 in 10.0 mi SW 9.2 mph - N/A   Clear
6:15 AM 11.3 °F -1.3 °F 7.7 °F 85% 30.08 in 10.0 mi SW 9.2 mph - N/A   Clear
6:35 AM 11.8 °F -0.7 °F 8.2 °F 85% 30.09 in 10.0 mi SW 9.2 mph - N/A   Clear
6:55 AM 11.3 °F -0.4 °F 7.7 °F 85% 30.09 in 10.0 mi SW 8.1 mph - N/A   Clear
7:15 AM 10.2 °F -1.7 °F 7.0 °F 87% 30.10 in 10.0 mi SW 8.1 mph - N/A   Clear
7:35 AM 10.4 °F -2.4 °F 7.5 °F 88% 30.10 in 10.0 mi SW 9.2 mph - N/A   Clear
7:55 AM 11.1 °F -2.4 °F 7.7 °F 86% 30.09 in 10.0 mi SW 10.4 mph - N/A   Clear
8:15 AM 12.2 °F -2.5 °F 8.4 °F 85% 30.08 in 10.0 mi SW 12.7 mph - N/A   Clear
8:55 AM 14.5 °F 0.5 °F 9.5 °F 80% 30.08 in 10.0 mi SW 12.7 mph - N/A   Clear
9:55 AM 17.6 °F 5.0 °F 11.1 °F 76% 30.10 in 10.0 mi SW 11.5 mph - N/A   Clear
10:15 AM 18.7 °F 5.7 °F 11.8 °F 75% 30.09 in 10.0 mi SW 12.7 mph 17.3 mph N/A   Clear
10:55 AM 21.0 °F 8.6 °F 13.1 °F 71% 30.08 in 10.0 mi SW 12.7 mph - N/A   Clear
11:55 AM 23.4 °F 12.2 °F 14.0 °F 67% 30.07 in 10.0 mi SW 11.5 mph - N/A   Clear
12:15 PM 24.4 °F 13.5 °F 14.9 °F 67% 30.07 in 10.0 mi WSW 11.5 mph - N/A   Clear
12:55 PM 25.5 °F 16.2 °F 15.4 °F 66% 30.06 in 10.0 mi WSW 9.2 mph - N/A   Clear
1:15 PM 26.2 °F 17.8 °F 15.8 °F 65% 30.06 in 10.0 mi WSW 8.1 mph - N/A   Clear
1:35 PM 26.6 °F 17.5 °F 16.2 °F 65% 30.05 in 10.0 mi WSW 9.2 mph - N/A   Clear
1:55 PM 27.1 °F 18.9 °F 16.5 °F 64% 30.06 in 10.0 mi SW 8.1 mph - N/A   Clear
2:15 PM 27.5 °F 20.2 °F 16.7 °F 64% 30.06 in 10.0 mi WSW 6.9 mph - N/A   Clear
2:35 PM 27.5 °F 18.6 °F 17.1 °F 65% 30.07 in 10.0 mi SW 9.2 mph - N/A   Clear
2:55 PM 27.5 °F 20.2 °F 17.2 °F 65% 30.08 in 10.0 mi SW 6.9 mph - N/A   Clear
3:15 PM 27.5 °F 20.2 °F 17.4 °F 66% 30.09 in 10.0 mi SW 6.9 mph - N/A   Clear
3:35 PM 27.5 °F 20.2 °F 17.2 °F 65% 30.09 in 10.0 mi SW 6.9 mph - N/A   Clear
3:55 PM 27.1 °F 19.7 °F 17.2 °F 66% 30.10 in 10.0 mi SW 6.9 mph - N/A   Clear
4:15 PM 26.6 °F 19.1 °F 17.1 °F 67% 30.11 in 10.0 mi SW 6.9 mph - N/A   Clear
4:35 PM 25.3 °F 18.5 °F 16.7 °F 70% 30.11 in 10.0 mi SW 5.8 mph - N/A   Clear
4:55 PM 23.7 °F 16.6 °F 16.5 °F 74% 30.12 in 10.0 mi SW 5.8 mph - N/A   Clear
5:15 PM 23.2 °F 16.0 °F 16.2 °F 75% 30.12 in 10.0 mi SW 5.8 mph - N/A   Clear
5:35 PM 23.0 °F 14.7 °F 16.0 °F 74% 30.13 in 10.0 mi SW 6.9 mph - N/A   Clear
6:15 PM 23.5 °F 14.5 °F 16.5 °F 75% 30.14 in 10.0 mi SW 8.1 mph - N/A   Clear
6:35 PM 23.0 °F 17.0 °F 16.2 °F 75% 30.14 in 10.0 mi SW 4.6 mph - N/A   Clear
7:15 PM 22.3 °F 13.9 °F 16.0 °F 77% 30.15 in 10.0 mi SW 6.9 mph - N/A   Clear
7:35 PM 21.6 °F 15.3 °F 15.6 °F 78% 30.15 in 10.0 mi SW 4.6 mph - N/A   Clear
7:55 PM 20.3 °F 13.8 °F 15.6 °F 82% 30.16 in 10.0 mi SW 4.6 mph - N/A   Clear
8:15 PM 20.7 °F 15.8 °F 15.8 °F 81% 30.15 in 10.0 mi SW 3.5 mph - N/A   Clear
8:35 PM 18.5 °F 13.3 °F 14.7 °F 85% 30.15 in 10.0 mi SSW 3.5 mph - N/A   Clear
8:55 PM 17.6 °F 12.3 °F 14.2 °F 86% 30.15 in 10.0 mi SSW 3.5 mph - N/A   Clear
9:15 PM 17.4 °F 10.4 °F 14.2 °F 87% 30.15 in 10.0 mi SSW 4.6 mph - N/A   Clear
9:55 PM 18.5 °F 13.3 °F 14.7 °F 85% 30.15 in 10.0 mi SW 3.5 mph - N/A   Clear
10:35 PM 12.9 °F 6.9 °F 10.4 °F 90% 30.16 in 10.0 mi SSW 3.5 mph - N/A   Clear
10:55 PM 15.1 °F 6.4 °F 13.1 °F 92% 30.16 in 10.0 mi SSW 5.8 mph - N/A   Clear
11:15 PM 17.6 °F 9.3 °F 14.9 °F 89% 30.17 in 10.0 mi SSW 5.8 mph - N/A   Clear
11:35 PM 17.2 °F 10.2 °F 14.7 °F 90% 30.16 in 10.0 mi SW 4.6 mph - N/A   Clear
11:55 PM 13.5 °F - 10.9 °F 90% 30.17 in 10.0 mi Calm Calm - N/A   Clear